When you browse on this site, cookies collect data to enhance your experience and personalize the content and advertising you see.
Visit our Privacy Policy to learn more. By continuing to use the site, you agree to this use of cookies and data.
  • In Spain
  • List of Countries
  • For 7 days
  • Water Temperature
  • Satellite Maps
  • Weather Map
  • Weather Widgets
  • user-avatar
    Login

    Hourly Weather Borisovka

    Today, 20 May, Monday

    Time Temperature Precipitation Wind Pressure Humidity
    00:00 +14°C° 0 mm 2 mps 748 mmHg 79%
    01:00 +14°C° 0 mm 2 mps 748 mmHg 80%
    02:00 +14°C° 0 mm 2 mps 748 mmHg 80%
    03:00 +14°C° 0 mm 2 mps 748 mmHg 80%
    04:00 +14°C° 0 mm 2 mps 748 mmHg 80%
    05:00 +14°C° 0 mm 2 mps 748 mmHg 80%
    06:00 +16°C° 0 mm 2 mps 748 mmHg 74%
    07:00 +18°C° 0 mm 2 mps 749 mmHg 68%
    08:00 +20°C° 0 mm 3 mps 749 mmHg 62%
    09:00 +22°C° 0 mm 3 mps 749 mmHg 56%
    10:00 +24°C° 0 mm 3 mps 749 mmHg 50%
    11:00 +25°C° 0 mm 4 mps 749 mmHg 44%
    12:00 +25°C° 0 mm 4 mps 749 mmHg 44%
    13:00 +25°C° 0 mm 4 mps 749 mmHg 43%
    14:00 +26°C° 0 mm 4 mps 748 mmHg 43%
    15:00 +25°C° 0 mm 3 mps 748 mmHg 47%
    16:00 +25°C° 0 mm 3 mps 748 mmHg 50%
    17:00 +25°C° 0 mm 3 mps 748 mmHg 53%
    18:00 +23°C° 0 mm 2 mps 748 mmHg 60%
    19:00 +20°C° 0 mm 2 mps 748 mmHg 67%
    20:00 +18°C° 0 mm 2 mps 748 mmHg 73%
    21:00 +17°C° 0 mm 2 mps 748 mmHg 76%
    22:00 +16°C° 0 mm 2 mps 748 mmHg 78%
    23:00 +15°C° 0 mm 2 mps 748 mmHg 80%

    Tomorrow, 21 May, Tuesday

    Time Temperature Precipitation Wind Pressure Humidity
    00:00 +15°C° 0 mm 2 mps 748 mmHg 82%
    01:00 +14°C° 0 mm 2 mps 748 mmHg 84%
    02:00 +14°C° 0 mm 2 mps 748 mmHg 86%
    03:00 +14°C° 0 mm 2 mps 748 mmHg 85%
    04:00 +13°C° 0 mm 3 mps 748 mmHg 85%
    05:00 +13°C° 0 mm 3 mps 748 mmHg 84%
    06:00 +16°C° 0 mm 3 mps 748 mmHg 76%
    07:00 +17°C° 0 mm 4 mps 748 mmHg 69%
    08:00 +19°C° 0 mm 5 mps 747 mmHg 61%
    09:00 +20°C° 0 mm 5 mps 747 mmHg 57%
    10:00 +21°C° 0 mm 5 mps 747 mmHg 53%
    11:00 +22°C° 0 mm 5 mps 747 mmHg 48%
    12:00 +23°C° 0 mm 5 mps 747 mmHg 49%
    13:00 +23°C° 0 mm 5 mps 746 mmHg 50%
    14:00 +25°C° 0 mm 5 mps 746 mmHg 51%
    15:00 +25°C° 0 mm 4 mps 746 mmHg 54%
    16:00 +23°C° 0 mm 4 mps 745 mmHg 57%
    17:00 +23°C° 0 mm 4 mps 745 mmHg 59%
    18:00 +21°C° 0 mm 3 mps 745 mmHg 66%
    19:00 +20°C° 0 mm 3 mps 745 mmHg 73%
    20:00 +18°C° 0 mm 2 mps 745 mmHg 81%
    21:00 +17°C° 0 mm 2 mps 745 mmHg 80%
    22:00 +16°C° 0 mm 2 mps 745 mmHg 80%
    23:00 +14°C° 0 mm 3 mps 745 mmHg 80%

    Day after tomorrow, 22 May, Wednesday

    Time Temperature Precipitation Wind Pressure Humidity
    00:00 +15°C° 0 mm 2 mps 744 mmHg 83%
    01:00 +14°C° 0 mm 2 mps 744 mmHg 85%
    02:00 +13°C° 0 mm 2 mps 744 mmHg 87%
    03:00 +14°C° 0 mm 2 mps 744 mmHg 88%
    04:00 +14°C° 0 mm 2 mps 743 mmHg 89%
    05:00 +14°C° 0 mm 2 mps 743 mmHg 90%
    06:00 +15°C° 0 mm 2 mps 743 mmHg 85%
    07:00 +17°C° 0 mm 2 mps 743 mmHg 80%
    08:00 +19°C° 0 mm 2 mps 743 mmHg 75%
    09:00 +20°C° 0 mm 2 mps 743 mmHg 73%
    10:00 +21°C° 0 mm 2 mps 742 mmHg 70%
    11:00 +24°C° 0 mm 3 mps 742 mmHg 67%
    12:00 +24°C° 0.2 mm 3 mps 742 mmHg 65%
    13:00 +25°C° 0.2 mm 3 mps 742 mmHg 63%
    14:00 +25°C° 0.2 mm 3 mps 741 mmHg 62%
    15:00 +25°C° 0 mm 3 mps 741 mmHg 62%
    16:00 +25°C° 0 mm 3 mps 741 mmHg 62%
    17:00 +25°C° 0 mm 2 mps 741 mmHg 63%
    18:00 +23°C° 0.1 mm 2 mps 741 mmHg 70%
    19:00 +20°C° 0.1 mm 2 mps 741 mmHg 78%
    20:00 +20°C° 0.1 mm 1 mps 741 mmHg 86%
    21:00 +19°C° 0 mm 1 mps 741 mmHg 87%
    22:00 +17°C° 0 mm 2 mps 741 mmHg 89%
    23:00 +16°C° 0 mm 2 mps 741 mmHg 91%

    23 May, Thursday

    Time Temperature Precipitation Wind Pressure Humidity
    00:00 +16°C° 0 mm 2 mps 741 mmHg 92%
    01:00 +15°C° 0 mm 2 mps 741 mmHg 92%
    02:00 +15°C° 0 mm 2 mps 740 mmHg 93%
    03:00 +15°C° 0 mm 2 mps 740 mmHg 93%
    04:00 +15°C° 0 mm 1 mps 740 mmHg 92%
    05:00 +15°C° 0 mm 1 mps 740 mmHg 91%
    06:00 +17°C° 0 mm 2 mps 740 mmHg 85%
    07:00 +19°C° 0 mm 2 mps 740 mmHg 78%
    08:00 +21°C° 0 mm 2 mps 740 mmHg 72%
    09:00 +23°C° 0 mm 2 mps 740 mmHg 66%
    10:00 +24°C° 0 mm 3 mps 740 mmHg 60%
    11:00 +25°C° 0 mm 3 mps 740 mmHg 55%
    12:00 +26°C° 0 mm 3 mps 740 mmHg 53%
    13:00 +26°C° 0 mm 3 mps 740 mmHg 51%
    14:00 +26°C° 0 mm 3 mps 740 mmHg 50%
    15:00 +26°C° 0 mm 3 mps 740 mmHg 52%
    16:00 +26°C° 0 mm 3 mps 740 mmHg 55%
    17:00 +25°C° 0 mm 3 mps 739 mmHg 57%
    18:00 +23°C° 0.1 mm 2 mps 739 mmHg 65%
    19:00 +21°C° 0.1 mm 1 mps 739 mmHg 73%
    20:00 +19°C° 0.1 mm 1 mps 740 mmHg 80%
    21:00 +18°C° 0 mm 1 mps 739 mmHg 82%
    22:00 +16°C° 0 mm 0 mps 739 mmHg 84%
    23:00 +15°C° 0 mm 0 mps 739 mmHg 86%

    24 May, Friday

    Time Temperature Precipitation Wind Pressure Humidity
    00:00 +15°C° 0 mm 0 mps 739 mmHg 87%
    01:00 +14°C° 0 mm 0 mps 739 mmHg 87%
    02:00 +15°C° 0 mm 1 mps 739 mmHg 88%
    03:00 +14°C° 0 mm 0 mps 739 mmHg 87%
    04:00 +15°C° 0 mm 0 mps 739 mmHg 86%
    05:00 +15°C° 0 mm 0 mps 739 mmHg 86%
    06:00 +18°C° 0 mm 1 mps 739 mmHg 81%
    07:00 +20°C° 0 mm 1 mps 739 mmHg 77%
    08:00 +20°C° 0 mm 2 mps 739 mmHg 73%
    09:00 +21°C° 0.7 mm 2 mps 739 mmHg 71%
    10:00 +23°C° 0.7 mm 2 mps 739 mmHg 70%
    11:00 +23°C° 0.7 mm 2 mps 739 mmHg 68%
    12:00 +25°C° 0.2 mm 1 mps 739 mmHg 63%
    13:00 +26°C° 0.2 mm 1 mps 738 mmHg 58%
    14:00 +25°C° 0.2 mm 0 mps 738 mmHg 53%
    15:00 +24°C° 0.1 mm 0 mps 738 mmHg 53%
    16:00 +24°C° 0.1 mm 0 mps 738 mmHg 54%
    17:00 +23°C° 0.1 mm 0 mps 738 mmHg 54%
    18:00 +23°C° 0.9 mm 1 mps 738 mmHg 64%
    19:00 +21°C° 0.9 mm 1 mps 737 mmHg 75%
    20:00 +18°C° 0.9 mm 2 mps 737 mmHg 85%
    21:00 +18°C° 0.4 mm 1 mps 737 mmHg 87%
    22:00 +16°C° 0.4 mm 1 mps 737 mmHg 90%
    23:00 +16°C° 0.4 mm 1 mps 737 mmHg 92%

    25 May, Saturday

    Time Temperature Precipitation Wind Pressure Humidity
    00:00 +15°C° 0.4 mm 1 mps 737 mmHg 93%
    01:00 +15°C° 0.4 mm 1 mps 737 mmHg 94%
    02:00 +15°C° 0.4 mm 1 mps 737 mmHg 95%
    03:00 +15°C° 0.2 mm 1 mps 737 mmHg 95%
    04:00 +15°C° 0.2 mm 2 mps 737 mmHg 95%
    05:00 +15°C° 0.2 mm 2 mps 737 mmHg 95%
    06:00 +16°C° 0.8 mm 1 mps 737 mmHg 93%
    07:00 +19°C° 0.8 mm 1 mps 737 mmHg 90%
    08:00 +20°C° 0.8 mm 1 mps 737 mmHg 87%
    09:00 +21°C° 1.1 mm 1 mps 737 mmHg 83%
    10:00 +21°C° 1.1 mm 2 mps 737 mmHg 78%
    11:00 +23°C° 1.1 mm 2 mps 736 mmHg 74%
    12:00 +21°C° 1.7 mm 2 mps 736 mmHg 77%
    13:00 +21°C° 1.7 mm 2 mps 736 mmHg 80%
    14:00 +20°C° 1.7 mm 2 mps 736 mmHg 83%
    15:00 +20°C° 0.8 mm 2 mps 736 mmHg 83%
    16:00 +20°C° 0.8 mm 3 mps 736 mmHg 84%
    17:00 +20°C° 0.8 mm 3 mps 736 mmHg 85%
    18:00 +19°C° 0.6 mm 3 mps 736 mmHg 86%
    19:00 +18°C° 0.6 mm 3 mps 736 mmHg 88%
    20:00 +17°C° 0.6 mm 3 mps 736 mmHg 90%
    21:00 +17°C° 0 mm 3 mps 736 mmHg 92%
    22:00 +16°C° 0 mm 3 mps 736 mmHg 94%
    23:00 +16°C° 0 mm 3 mps 736 mmHg 96%
    Show more